Location: Peebles
(55.6412°N, 3.1714°W)
Time: 09:11:40
(UTC+00:00)

COSMOS 2251 DEB - Pass Details

Date: 06 December 2022
Orbit: 738 x 761 km, 74.0° (Epoch: 29 January)

Event Time Altitude Azimuth Distance (km) Brightness Sun altitude
Exits shadow 04:42:00 12° 5° (N) 2,116 ? -29.8°
Drops below altitude 10° 04:42:38 10° 10° (N) 2,262 ? -29.7°
Sets 04:45:46 0° 30° (NNE) 3,190 ? -29.3°
